Time,TemperatureF,DewpointF,PressureIn,WindDirection,WindDirectionDegrees,WindSpeedMPH,WindSpeedGustMPH,Humidity,HourlyPrecipIn,Conditions,Clouds,dailyrainin,SoftwareType,DateUTC
2013-05-20 00:00:00,50.6,46.0,30.35,East,83,0.0,0.0,84,0.00,,---,0.00,VWS V14.01,2013-05-20 07:00:00,
2013-05-20 00:05:00,50.4,46.1,30.35,East,83,0.0,0.0,85,0.00,,---,0.00,VWS V14.01,2013-05-20 07:05:00,
2013-05-20 00:10:00,50.4,46.1,30.35,East,83,0.0,0.0,85,0.00,,---,0.00,VWS V14.01,2013-05-20 07:10:00,
2013-05-20 00:15:00,50.4,46.1,30.35,East,83,0.0,0.0,85,0.00,,---,0.00,VWS V14.01,2013-05-20 07:15:00,
2013-05-20 00:20:00,50.4,46.4,30.35,East,83,0.0,0.0,86,0.00,,---,0.00,VWS V14.01,2013-05-20 07:20:00,
2013-05-20 00:25:00,50.4,46.4,30.35,East,83,1.0,1.0,86,0.00,,---,0.00,VWS V14.01,2013-05-20 07:25:00,
2013-05-20 00:30:00,50.3,46.3,30.35,East,84,0.0,1.0,86,0.00,,---,0.00,VWS V14.01,2013-05-20 07:30:00,
2013-05-20 00:35:00,50.3,46.3,30.35,East,84,1.0,1.0,86,0.00,,---,0.00,VWS V14.01,2013-05-20 07:35:00,
2013-05-20 00:40:00,50.3,46.3,30.35,East,87,1.0,1.0,86,0.00,,---,0.00,VWS V14.01,2013-05-20 07:40:00,
2013-05-20 00:45:00,50.3,46.3,30.35,East,87,1.0,1.0,86,0.00,,---,0.00,VWS V14.01,2013-05-20 07:45:00,
2013-05-20 00:50:00,50.3,46.0,30.35,East,87,0.0,1.0,85,0.00,,---,0.00,VWS V14.01,2013-05-20 07:50:00,
2013-05-20 00:55:00,50.2,45.9,30.35,East,87,1.0,1.0,85,0.00,,---,0.00,VWS V14.01,2013-05-20 07:55:00,
2013-05-20 01:00:00,50.1,45.8,30.35,East,87,0.0,0.0,85,0.00,,---,0.00,VWS V14.01,2013-05-20 08:00:00,
2013-05-20 01:05:00,50.0,45.4,30.35,East,86,0.0,0.0,84,0.00,,---,0.00,VWS V14.01,2013-05-20 08:05:00,
2013-05-20 01:10:00,50.1,45.5,30.35,NE,34,0.0,2.0,84,0.00,,---,0.00,VWS V14.01,2013-05-20 08:10:00,
2013-05-20 01:15:00,50.0,45.4,30.35,NE,46,0.0,1.0,84,0.00,,---,0.00,VWS V14.01,2013-05-20 08:15:00,
2013-05-20 01:20:00,50.0,45.4,30.35,ENE,67,0.0,2.0,84,0.00,,---,0.00,VWS V14.01,2013-05-20 08:20:00,
2013-05-20 01:25:00,50.0,45.4,30.35,ENE,60,0.0,1.0,84,0.00,,---,0.00,VWS V14.01,2013-05-20 08:25:00,
2013-05-20 01:30:00,49.9,45.3,30.35,ENE,65,0.0,1.0,84,0.00,,---,0.00,VWS V14.01,2013-05-20 08:30:00,
2013-05-20 01:35:00,49.8,45.2,30.35,NNE,29,1.0,2.0,84,0.00,,---,0.00,VWS V14.01,2013-05-20 08:35:00,
2013-05-20 01:40:00,49.8,45.2,30.35,ENE,60,0.0,2.0,84,0.00,,---,0.00,VWS V14.01,2013-05-20 08:40:00,
2013-05-20 01:45:00,49.7,45.4,30.35,ENE,59,0.0,0.0,85,0.00,,---,0.00,VWS V14.01,2013-05-20 08:45:00,
2013-05-20 01:50:00,49.5,45.2,30.35,NE,51,0.0,0.0,85,0.00,,---,0.00,VWS V14.01,2013-05-20 08:50:00,
2013-05-20 01:55:00,49.5,45.2,30.35,NNE,19,0.0,3.0,85,0.00,,---,0.00,VWS V14.01,2013-05-20 08:55:00,
2013-05-20 02:00:00,49.5,45.5,30.36,NE,56,1.0,3.0,86,0.00,,---,0.00,VWS V14.01,2013-05-20 09:00:00,
2013-05-20 02:05:00,49.4,45.4,30.35,NE,34,1.0,2.0,86,0.00,,---,0.00,VWS V14.01,2013-05-20 09:05:00,
2013-05-20 02:10:00,49.3,45.3,30.35,NNE,18,0.0,2.0,86,0.00,,---,0.00,VWS V14.01,2013-05-20 09:10:00,
2013-05-20 02:15:00,49.3,45.6,30.35,East,96,1.0,2.0,87,0.00,,---,0.00,VWS V14.01,2013-05-20 09:15:00,
2013-05-20 02:20:00,49.2,45.5,30.35,East,96,0.0,1.0,87,0.00,,---,0.00,VWS V14.01,2013-05-20 09:20:00,
2013-05-20 02:25:00,49.1,45.4,30.35,East,96,0.0,1.0,87,0.00,,---,0.00,VWS V14.01,2013-05-20 09:25:00,
2013-05-20 02:30:00,48.9,45.2,30.35,East,96,0.0,0.0,87,0.00,,---,0.00,VWS V14.01,2013-05-20 09:30:00,
2013-05-20 02:35:00,48.7,45.0,30.35,East,96,0.0,0.0,87,0.00,,---,0.00,VWS V14.01,2013-05-20 09:35:00,
2013-05-20 02:40:00,48.5,45.1,30.35,East,96,0.0,0.0,88,0.00,,---,0.00,VWS V14.01,2013-05-20 09:40:00,
2013-05-20 02:45:00,48.3,44.9,30.35,East,96,0.0,0.0,88,0.00,,---,0.00,VWS V14.01,2013-05-20 09:45:00,
2013-05-20 02:50:00,48.1,44.7,30.35,East,96,0.0,0.0,88,0.00,,---,0.00,VWS V14.01,2013-05-20 09:50:00,
2013-05-20 02:55:00,47.9,44.8,30.35,East,96,0.0,0.0,89,0.00,,---,0.00,VWS V14.01,2013-05-20 09:55:00,
2013-05-20 03:00:00,47.6,44.5,30.35,East,96,0.0,0.0,89,0.00,,---,0.00,VWS V14.01,2013-05-20 10:00:00,
2013-05-20 03:05:00,47.4,44.6,30.35,East,96,0.0,0.0,90,0.00,,---,0.00,VWS V14.01,2013-05-20 10:05:00,
2013-05-20 03:10:00,47.3,44.5,30.35,East,96,0.0,0.0,90,0.00,,---,0.00,VWS V14.01,2013-05-20 10:10:00,
2013-05-20 03:15:00,47.4,44.6,30.35,East,96,0.0,0.0,90,0.00,,---,0.00,VWS V14.01,2013-05-20 10:15:00,
2013-05-20 03:20:00,47.4,44.6,30.35,East,96,0.0,0.0,90,0.00,,---,0.00,VWS V14.01,2013-05-20 10:20:00,
2013-05-20 03:25:00,47.4,44.6,30.35,East,96,0.0,0.0,90,0.00,,---,0.00,VWS V14.01,2013-05-20 10:25:00,
2013-05-20 03:30:00,47.4,44.6,30.35,East,96,0.0,0.0,90,0.00,,---,0.00,VWS V14.01,2013-05-20 10:30:00,
2013-05-20 03:35:00,47.4,44.6,30.35,East,96,0.0,0.0,90,0.00,,---,0.00,VWS V14.01,2013-05-20 10:35:00,
2013-05-20 03:40:00,47.4,44.6,30.35,East,96,0.0,0.0,90,0.00,,---,0.00,VWS V14.01,2013-05-20 10:40:00,
2013-05-20 03:45:00,47.4,44.6,30.35,East,96,1.0,1.0,90,0.00,,---,0.00,VWS V14.01,2013-05-20 10:45:00,
2013-05-20 03:50:00,47.4,44.6,30.34,East,96,1.0,1.0,90,0.00,,---,0.00,VWS V14.01,2013-05-20 10:50:00,
2013-05-20 03:55:00,47.5,45.0,30.34,East,96,0.0,1.0,91,0.00,,---,0.00,VWS V14.01,2013-05-20 10:55:00,
2013-05-20 04:00:00,47.4,44.6,30.34,East,96,0.0,1.0,90,0.00,,---,0.00,VWS V14.01,2013-05-20 11:00:00,
2013-05-20 04:05:00,47.3,44.5,30.34,East,96,0.0,0.0,90,0.00,,---,0.00,VWS V14.01,2013-05-20 11:05:00,
2013-05-20 04:10:00,47.3,44.5,30.34,East,96,0.0,0.0,90,0.00,,---,0.00,VWS V14.01,2013-05-20 11:10:00,
2013-05-20 04:15:00,47.2,44.7,30.34,East,96,0.0,1.0,91,0.00,,---,0.00,VWS V14.01,2013-05-20 11:15:00,
2013-05-20 04:20:00,47.2,44.7,30.34,East,96,0.0,0.0,91,0.00,,---,0.00,VWS V14.01,2013-05-20 11:20:00,
2013-05-20 04:25:00,47.1,44.6,30.33,East,96,0.0,0.0,91,0.00,,---,0.00,VWS V14.01,2013-05-20 11:25:00,
2013-05-20 04:30:00,47.1,44.6,30.33,East,96,0.0,0.0,91,0.00,,---,0.00,VWS V14.01,2013-05-20 11:30:00,
2013-05-20 04:35:00,47.2,45.0,30.33,East,96,0.0,0.0,92,0.00,,---,0.00,VWS V14.01,2013-05-20 11:35:00,
2013-05-20 04:40:00,47.3,44.8,30.33,East,96,0.0,0.0,91,0.00,,---,0.00,VWS V14.01,2013-05-20 11:40:00,
2013-05-20 04:45:00,47.2,45.0,30.33,East,96,0.0,0.0,92,0.00,,---,0.00,VWS V14.01,2013-05-20 11:45:00,
2013-05-20 04:50:00,47.2,45.0,30.33,East,96,0.0,0.0,92,0.00,,---,0.00,VWS V14.01,2013-05-20 11:50:00,
2013-05-20 04:55:00,47.2,45.0,30.32,East,96,0.0,0.0,92,0.00,,---,0.00,VWS V14.01,2013-05-20 11:55:00,
2013-05-20 05:00:00,47.3,45.1,30.32,East,96,0.0,0.0,92,0.00,,---,0.00,VWS V14.01,2013-05-20 12:00:00,
2013-05-20 05:05:00,47.5,45.0,30.32,East,96,0.0,0.0,91,0.00,,---,0.00,VWS V14.01,2013-05-20 12:05:00,
2013-05-20 05:10:00,47.4,45.2,30.32,East,96,0.0,0.0,92,0.00,,---,0.00,VWS V14.01,2013-05-20 12:10:00,
2013-05-20 05:15:00,47.4,45.2,30.32,East,96,0.0,0.0,92,0.00,,---,0.00,VWS V14.01,2013-05-20 12:15:00,
2013-05-20 05:20:00,47.3,45.1,30.32,East,96,0.0,0.0,92,0.00,,---,0.00,VWS V14.01,2013-05-20 12:20:00,
2013-05-20 05:25:00,47.2,45.0,30.32,East,96,0.0,0.0,92,0.00,,---,0.00,VWS V14.01,2013-05-20 12:25:00,
2013-05-20 05:30:00,47.2,45.0,30.32,East,96,0.0,0.0,92,0.00,,---,0.00,VWS V14.01,2013-05-20 12:30:00,
2013-05-20 05:35:00,47.3,45.1,30.32,East,96,0.0,0.0,92,0.00,,---,0.00,VWS V14.01,2013-05-20 12:35:00,
2013-05-20 05:40:00,47.4,45.2,30.31,East,96,0.0,0.0,92,0.00,,---,0.00,VWS V14.01,2013-05-20 12:40:00,
2013-05-20 05:45:00,47.6,45.4,30.31,East,96,0.0,0.0,92,0.00,,---,0.00,VWS V14.01,2013-05-20 12:45:00,
2013-05-20 05:50:00,47.7,45.8,30.31,East,96,0.0,0.0,93,0.00,,---,0.00,VWS V14.01,2013-05-20 12:50:00,
2013-05-20 05:55:00,48.0,46.1,30.31,East,96,0.0,0.0,93,0.00,,---,0.00,VWS V14.01,2013-05-20 12:55:00,
2013-05-20 06:00:00,48.0,45.8,30.31,East,96,0.0,0.0,92,0.00,,---,0.00,VWS V14.01,2013-05-20 13:00:00,
2013-05-20 06:05:00,48.1,45.9,30.31,East,96,0.0,0.0,92,0.00,,---,0.00,VWS V14.01,2013-05-20 13:05:00,
2013-05-20 06:10:00,48.3,46.1,30.30,East,96,0.0,0.0,92,0.00,,---,0.00,VWS V14.01,2013-05-20 13:10:00,
2013-05-20 06:15:00,48.3,46.1,30.30,East,96,0.0,0.0,92,0.00,,---,0.00,VWS V14.01,2013-05-20 13:15:00,
2013-05-20 06:20:00,48.4,46.2,30.30,East,96,0.0,0.0,92,0.00,,---,0.00,VWS V14.01,2013-05-20 13:20:00,
2013-05-20 06:25:00,48.2,45.7,30.30,WSW,240,0.0,0.0,91,0.00,,---,0.00,VWS V14.01,2013-05-20 13:25:00,
2013-05-20 06:30:00,47.9,45.4,30.30,SSE,167,0.0,0.0,91,0.00,,---,0.00,VWS V14.01,2013-05-20 13:30:00,
2013-05-20 06:35:00,47.8,45.6,30.30,SSE,167,0.0,0.0,92,0.00,,---,0.00,VWS V14.01,2013-05-20 13:35:00,
2013-05-20 06:40:00,47.7,45.5,30.30,SSE,167,0.0,0.0,92,0.00,,---,0.00,VWS V14.01,2013-05-20 13:40:00,
2013-05-20 06:45:00,47.7,45.5,30.30,SSE,167,0.0,0.0,92,0.00,,---,0.00,VWS V14.01,2013-05-20 13:45:00,
2013-05-20 06:50:00,47.8,45.9,30.30,SW,233,0.0,0.0,93,0.00,,---,0.00,VWS V14.01,2013-05-20 13:50:00,
2013-05-20 06:55:00,47.9,46.0,30.30,SW,230,0.0,0.0,93,0.00,,---,0.00,VWS V14.01,2013-05-20 13:55:00,
2013-05-20 07:00:00,48.1,46.2,30.30,SW,226,0.0,0.0,93,0.00,,---,0.00,VWS V14.01,2013-05-20 14:00:00,
2013-05-20 07:05:00,48.6,46.7,30.30,SW,226,0.0,0.0,93,0.00,,---,0.00,VWS V14.01,2013-05-20 14:05:00,
2013-05-20 07:10:00,49.2,47.3,30.30,SW,226,0.0,0.0,93,0.00,,---,0.00,VWS V14.01,2013-05-20 14:10:00,
2013-05-20 07:15:00,49.9,47.7,30.29,SW,226,0.0,0.0,92,0.00,,---,0.00,VWS V14.01,2013-05-20 14:15:00,
2013-05-20 07:20:00,50.8,47.7,30.29,SSW,195,0.0,0.0,89,0.00,,---,0.00,VWS V14.01,2013-05-20 14:20:00,
2013-05-20 07:25:00,51.3,47.9,30.29,SSE,151,0.0,0.0,88,0.00,,---,0.00,VWS V14.01,2013-05-20 14:25:00,
2013-05-20 07:30:00,51.5,47.8,30.28,SSE,150,0.0,0.0,87,0.00,,---,0.00,VWS V14.01,2013-05-20 14:30:00,
2013-05-20 07:35:00,51.1,47.7,30.28,SE,145,0.0,0.0,88,0.00,,---,0.00,VWS V14.01,2013-05-20 14:35:00,
2013-05-20 07:40:00,50.7,47.3,30.28,WSW,238,0.0,0.0,88,0.00,,---,0.00,VWS V14.01,2013-05-20 14:40:00,
2013-05-20 07:45:00,50.4,47.3,30.28,SSE,157,0.0,0.0,89,0.00,,---,0.00,VWS V14.01,2013-05-20 14:45:00,
2013-05-20 07:50:00,50.3,47.2,30.28,SSE,150,0.0,0.0,89,0.00,,---,0.00,VWS V14.01,2013-05-20 14:50:00,
2013-05-20 07:55:00,50.4,47.6,30.28,West,266,0.0,0.0,90,0.00,,---,0.00,VWS V14.01,2013-05-20 14:55:00,
2013-05-20 08:00:00,50.4,47.6,30.28,SW,214,1.0,1.0,90,0.00,,---,0.00,VWS V14.01,2013-05-20 15:00:00,
2013-05-20 08:05:00,50.6,47.5,30.28,West,269,1.0,3.0,89,0.00,,---,0.00,VWS V14.01,2013-05-20 15:05:00,
2013-05-20 08:10:00,50.9,47.8,30.28,WNW,303,2.0,3.0,89,0.00,,---,0.00,VWS V14.01,2013-05-20 15:10:00,
2013-05-20 08:15:00,51.1,48.0,30.28,West,280,1.0,3.0,89,0.00,,---,0.00,VWS V14.01,2013-05-20 15:15:00,
2013-05-20 08:20:00,51.1,47.7,30.28,SSE,160,1.0,3.0,88,0.00,,---,0.00,VWS V14.01,2013-05-20 15:20:00,
2013-05-20 08:25:00,51.4,48.0,30.28,SE,134,0.0,2.0,88,0.00,,---,0.00,VWS V14.01,2013-05-20 15:25:00,
2013-05-20 08:30:00,51.7,48.0,30.27,West,260,2.0,2.0,87,0.00,,---,0.00,VWS V14.01,2013-05-20 15:30:00,
2013-05-20 08:35:00,51.6,47.6,30.27,WSW,248,0.0,2.0,86,0.00,,---,0.00,VWS V14.01,2013-05-20 15:35:00,
2013-05-20 08:40:00,51.7,48.0,30.27,West,278,2.0,3.0,87,0.00,,---,0.00,VWS V14.01,2013-05-20 15:40:00,
2013-05-20 08:45:00,51.9,48.2,30.27,South,172,0.0,1.0,87,0.00,,---,0.00,VWS V14.01,2013-05-20 15:45:00,
2013-05-20 08:50:00,52.3,48.2,30.27,SSE,152,0.0,2.0,86,0.00,,---,0.00,VWS V14.01,2013-05-20 15:50:00,
2013-05-20 08:55:00,52.6,48.2,30.27,West,266,0.0,2.0,85,0.00,,---,0.00,VWS V14.01,2013-05-20 15:55:00,
2013-05-20 09:00:00,52.7,48.3,30.27,West,261,0.0,2.0,85,0.00,,---,0.00,VWS V14.01,2013-05-20 16:00:00,
2013-05-20 09:05:00,52.7,48.3,30.27,West,274,0.0,2.0,85,0.00,,---,0.00,VWS V14.01,2013-05-20 16:05:00,
2013-05-20 09:10:00,53.0,48.3,30.27,SE,146,0.0,1.0,84,0.00,,---,0.00,VWS V14.01,2013-05-20 16:10:00,
2013-05-20 09:15:00,53.4,48.7,30.26,SSE,156,0.0,3.0,84,0.00,,---,0.00,VWS V14.01,2013-05-20 16:15:00,
2013-05-20 09:20:00,53.8,48.8,30.26,NW,307,1.0,4.0,83,0.00,,---,0.00,VWS V14.01,2013-05-20 16:20:00,
2013-05-20 09:25:00,53.9,48.9,30.26,West,259,3.0,3.0,83,0.00,,---,0.00,VWS V14.01,2013-05-20 16:25:00,
2013-05-20 09:30:00,53.9,48.9,30.26,WNW,283,1.0,2.0,83,0.00,,---,0.00,VWS V14.01,2013-05-20 16:30:00,
2013-05-20 09:35:00,53.6,48.6,30.26,SW,224,0.0,5.0,83,0.00,,---,0.00,VWS V14.01,2013-05-20 16:35:00,
2013-05-20 09:40:00,53.6,48.6,30.26,ESE,109,1.0,4.0,83,0.00,,---,0.00,VWS V14.01,2013-05-20 16:40:00,
2013-05-20 09:45:00,53.8,48.8,30.26,WSW,251,2.0,2.0,83,0.00,,---,0.00,VWS V14.01,2013-05-20 16:45:00,
2013-05-20 09:50:00,54.0,49.0,30.25,SW,224,0.0,2.0,83,0.00,,---,0.00,VWS V14.01,2013-05-20 16:50:00,
2013-05-20 09:55:00,54.4,48.7,30.25,West,259,2.0,4.0,81,0.00,,---,0.00,VWS V14.01,2013-05-20 16:55:00,
2013-05-20 10:00:00,54.5,49.1,30.25,WSW,251,0.0,2.0,82,0.00,,---,0.00,VWS V14.01,2013-05-20 17:00:00,
2013-05-20 10:05:00,54.5,48.8,30.24,West,276,0.0,3.0,81,0.00,,---,0.00,VWS V14.01,2013-05-20 17:05:00,
2013-05-20 10:10:00,54.6,48.9,30.24,SSE,155,1.0,2.0,81,0.00,,---,0.00,VWS V14.01,2013-05-20 17:10:00,
2013-05-20 10:15:00,54.5,48.8,30.24,WSW,250,1.0,4.0,81,0.00,,---,0.00,VWS V14.01,2013-05-20 17:15:00,
2013-05-20 10:20:00,54.4,49.0,30.24,WSW,245,0.0,4.0,82,0.00,,---,0.00,VWS V14.01,2013-05-20 17:20:00,
2013-05-20 10:25:00,54.8,49.1,30.23,South,173,0.0,2.0,81,0.00,,---,0.00,VWS V14.01,2013-05-20 17:25:00,
2013-05-20 10:30:00,55.2,49.5,30.23,West,259,1.0,2.0,81,0.00,,---,0.00,VWS V14.01,2013-05-20 17:30:00,
2013-05-20 10:35:00,55.3,49.2,30.23,SW,236,3.0,4.0,80,0.00,,---,0.00,VWS V14.01,2013-05-20 17:35:00,
2013-05-20 10:40:00,55.3,48.9,30.23,WSW,258,3.0,4.0,79,0.00,,---,0.00,VWS V14.01,2013-05-20 17:40:00,
2013-05-20 10:45:00,55.3,48.9,30.22,WSW,245,1.0,5.0,79,0.00,,---,0.00,VWS V14.01,2013-05-20 17:45:00,
2013-05-20 10:50:00,55.4,49.3,30.22,WSW,247,2.0,5.0,80,0.00,,---,0.00,VWS V14.01,2013-05-20 17:50:00,
2013-05-20 10:55:00,55.6,49.2,30.22,NW,305,2.0,7.0,79,0.00,,---,0.00,VWS V14.01,2013-05-20 17:55:00,
2013-05-20 11:00:00,56.0,49.2,30.22,WSW,238,3.0,4.0,78,0.00,,---,0.00,VWS V14.01,2013-05-20 18:00:00,
2013-05-20 11:05:00,55.9,49.2,30.22,West,263,1.0,5.0,78,0.00,,---,0.00,VWS V14.01,2013-05-20 18:05:00,
2013-05-20 11:10:00,56.2,49.4,30.22,WSW,258,1.0,5.0,78,0.00,,---,0.00,VWS V14.01,2013-05-20 18:10:00,
2013-05-20 11:15:00,56.7,49.6,30.22,West,276,2.0,7.0,77,0.00,,---,0.00,VWS V14.01,2013-05-20 18:15:00,
2013-05-20 11:20:00,56.8,49.7,30.21,WSW,254,1.0,6.0,77,0.00,,---,0.00,VWS V14.01,2013-05-20 18:20:00,
2013-05-20 11:25:00,56.7,49.2,30.21,West,264,3.0,5.0,76,0.00,,---,0.00,VWS V14.01,2013-05-20 18:25:00,
2013-05-20 11:30:00,56.4,48.9,30.21,SW,229,2.0,5.0,76,0.00,,---,0.00,VWS V14.01,2013-05-20 18:30:00,
2013-05-20 11:35:00,56.0,49.2,30.21,West,271,2.0,9.0,78,0.00,,---,0.00,VWS V14.01,2013-05-20 18:35:00,
2013-05-20 11:40:00,55.9,49.2,30.21,SW,229,1.0,8.0,78,0.00,,---,0.00,VWS V14.01,2013-05-20 18:40:00,
2013-05-20 11:45:00,56.4,49.6,30.21,WSW,245,3.0,4.0,78,0.00,,---,0.00,VWS V14.01,2013-05-20 18:45:00,
2013-05-20 11:50:00,56.2,49.1,30.20,SW,231,1.0,4.0,77,0.00,,---,0.00,VWS V14.01,2013-05-20 18:50:00,
2013-05-20 11:55:00,56.8,50.0,30.20,WSW,242,6.0,10.0,78,0.00,,---,0.00,VWS V14.01,2013-05-20 18:55:00,
2013-05-20 12:00:00,56.8,49.3,30.20,West,269,3.0,7.0,76,0.00,,---,0.00,VWS V14.01,2013-05-20 19:00:00,
2013-05-20 12:04:00,56.9,49.1,30.20,WSW,252,2.0,6.0,75,0.00,,---,0.00,VWS V14.01,2013-05-20 19:04:00,
2013-05-20 12:05:00,56.9,49.4,30.20,WSW,241,1.0,6.0,76,0.00,,---,0.00,VWS V14.01,2013-05-20 19:05:00,
2013-05-20 12:09:00,57.3,49.5,30.20,WSW,243,1.0,5.0,75,0.00,,---,0.00,VWS V14.01,2013-05-20 19:09:00,
2013-05-20 12:10:00,57.6,50.1,30.20,SSW,210,2.0,5.0,76,0.00,,---,0.00,VWS V14.01,2013-05-20 19:10:00,
2013-05-20 12:14:00,57.8,49.6,30.19,SW,235,1.0,6.0,74,0.00,,---,0.00,VWS V14.01,2013-05-20 19:14:00,
2013-05-20 12:15:00,57.7,49.5,30.19,South,176,1.0,6.0,74,0.00,,---,0.00,VWS V14.01,2013-05-20 19:15:00,
2013-05-20 12:19:00,57.6,49.8,30.19,West,259,3.0,7.0,75,0.00,,---,0.00,VWS V14.01,2013-05-20 19:19:00,
2013-05-20 12:20:00,57.5,49.3,30.19,WSW,255,2.0,8.0,74,0.00,,---,0.00,VWS V14.01,2013-05-20 19:20:00,
2013-05-20 12:24:00,57.7,49.5,30.19,West,266,2.0,4.0,74,0.00,,---,0.00,VWS V14.01,2013-05-20 19:24:00,
2013-05-20 12:25:00,57.6,49.0,30.19,West,274,2.0,5.0,73,0.00,,---,0.00,VWS V14.01,2013-05-20 19:25:00,
2013-05-20 12:29:00,57.5,49.3,30.19,West,268,2.0,5.0,74,0.00,,---,0.00,VWS V14.01,2013-05-20 19:29:00,
2013-05-20 12:30:00,57.5,49.3,30.19,WSW,240,4.0,5.0,74,0.00,,---,0.00,VWS V14.01,2013-05-20 19:30:00,
2013-05-20 12:34:00,57.7,49.5,30.19,SSW,213,1.0,4.0,74,0.00,,---,0.00,VWS V14.01,2013-05-20 19:34:00,
2013-05-20 12:35:00,57.9,49.3,30.19,West,276,3.0,4.0,73,0.00,,---,0.00,VWS V14.01,2013-05-20 19:35:00,
2013-05-20 12:39:00,57.9,49.3,30.18,West,260,2.0,5.0,73,0.00,,---,0.00,VWS V14.01,2013-05-20 19:39:00,
2013-05-20 12:40:00,58.1,49.5,30.18,WNW,286,2.0,5.0,73,0.00,,---,0.00,VWS V14.01,2013-05-20 19:40:00,
2013-05-20 12:44:00,58.5,49.9,30.18,WNW,293,2.0,6.0,73,0.00,,---,0.00,VWS V14.01,2013-05-20 19:44:00,
2013-05-20 12:45:00,58.8,49.4,30.18,WNW,285,3.0,7.0,71,0.00,,---,0.00,VWS V14.01,2013-05-20 19:45:00,
2013-05-20 12:49:00,59.0,50.4,30.17,ESE,117,1.0,5.0,73,0.00,,---,0.00,VWS V14.01,2013-05-20 19:49:00,
2013-05-20 12:50:00,59.4,50.4,30.17,South,184,1.0,5.0,72,0.00,,---,0.00,VWS V14.01,2013-05-20 19:50:00,
2013-05-20 12:54:00,60.1,50.7,30.17,SW,233,2.0,4.0,71,0.00,,---,0.00,VWS V14.01,2013-05-20 19:54:00,
2013-05-20 12:55:00,60.3,50.5,30.17,West,263,2.0,4.0,70,0.00,,---,0.00,VWS V14.01,2013-05-20 19:55:00,
2013-05-20 12:59:00,60.3,50.5,30.17,South,190,0.0,3.0,70,0.00,,---,0.00,VWS V14.01,2013-05-20 19:59:00,
2013-05-20 13:00:00,60.6,49.6,30.17,SSE,152,2.0,3.0,67,0.00,,---,0.00,VWS V14.01,2013-05-20 20:00:00,
2013-05-20 13:04:00,60.9,50.3,30.16,WNW,288,2.0,3.0,68,0.00,,---,0.00,VWS V14.01,2013-05-20 20:04:00,
2013-05-20 13:05:00,61.1,50.5,30.17,NNE,29,2.0,3.0,68,0.00,,---,0.00,VWS V14.01,2013-05-20 20:05:00,
2013-05-20 13:09:00,61.2,49.8,30.16,NW,317,3.0,4.0,66,0.00,,---,0.00,VWS V14.01,2013-05-20 20:09:00,
2013-05-20 13:10:00,60.8,49.4,30.16,NW,309,5.0,6.0,66,0.00,,---,0.00,VWS V14.01,2013-05-20 20:10:00,
2013-05-20 13:14:00,60.6,49.6,30.16,North,356,3.0,5.0,67,0.00,,---,0.00,VWS V14.01,2013-05-20 20:14:00,
2013-05-20 13:15:00,60.8,50.2,30.16,SW,230,2.0,5.0,68,0.00,,---,0.00,VWS V14.01,2013-05-20 20:15:00,
2013-05-20 13:19:00,60.8,49.8,30.16,SW,236,3.0,7.0,67,0.00,,---,0.00,VWS V14.01,2013-05-20 20:19:00,
2013-05-20 13:20:00,60.9,50.3,30.16,SE,136,4.0,7.0,68,0.00,,---,0.00,VWS V14.01,2013-05-20 20:20:00,
2013-05-20 13:24:00,61.6,50.1,30.16,WNW,296,4.0,4.0,66,0.00,,---,0.00,VWS V14.01,2013-05-20 20:24:00,
2013-05-20 13:25:00,61.8,50.3,30.16,West,267,3.0,4.0,66,0.00,,---,0.00,VWS V14.01,2013-05-20 20:25:00,
2013-05-20 13:29:00,62.1,50.6,30.15,WNW,291,1.0,5.0,66,0.00,,---,0.00,VWS V14.01,2013-05-20 20:29:00,
2013-05-20 13:30:00,62.5,51.0,30.15,WNW,297,6.0,6.0,66,0.00,,---,0.00,VWS V14.01,2013-05-20 20:30:00,
2013-05-20 13:34:00,62.2,49.5,30.15,WSW,245,3.0,7.0,63,0.00,,---,0.00,VWS V14.01,2013-05-20 20:34:00,
2013-05-20 13:35:00,61.7,48.6,30.15,NW,313,2.0,7.0,62,0.00,,---,0.00,VWS V14.01,2013-05-20 20:35:00,
2013-05-20 13:39:00,61.5,50.0,30.15,NNW,343,6.0,7.0,66,0.00,,---,0.00,VWS V14.01,2013-05-20 20:39:00,
2013-05-20 13:40:00,61.4,49.1,30.15,NW,308,4.0,8.0,64,0.00,,---,0.00,VWS V14.01,2013-05-20 20:40:00,
2013-05-20 13:44:00,61.2,48.1,30.15,West,274,2.0,6.0,62,0.00,,---,0.00,VWS V14.01,2013-05-20 20:44:00,
2013-05-20 13:45:00,61.2,48.9,30.14,SSE,163,2.0,6.0,64,0.00,,---,0.00,VWS V14.01,2013-05-20 20:45:00,
2013-05-20 13:49:00,61.5,49.2,30.14,WNW,288,1.0,2.0,64,0.00,,---,0.00,VWS V14.01,2013-05-20 20:49:00,
2013-05-20 13:50:00,61.8,48.7,30.14,SSE,153,2.0,4.0,62,0.00,,---,0.00,VWS V14.01,2013-05-20 20:50:00,
2013-05-20 13:54:00,62.2,49.0,30.14,ESE,119,0.0,2.0,62,0.00,,---,0.00,VWS V14.01,2013-05-20 20:54:00,
2013-05-20 13:55:00,62.7,49.9,30.14,SE,144,2.0,2.0,63,0.00,,---,0.00,VWS V14.01,2013-05-20 20:55:00,
2013-05-20 13:59:00,62.6,48.5,30.14,WNW,299,4.0,9.0,60,0.00,,---,0.00,VWS V14.01,2013-05-20 20:59:00,
2013-05-20 14:00:00,62.5,48.9,30.14,West,261,1.0,9.0,61,0.00,,---,0.00,VWS V14.01,2013-05-20 21:00:00,
2013-05-20 14:04:00,62.5,48.9,30.14,SSW,213,2.0,6.0,61,0.00,,---,0.00,VWS V14.01,2013-05-20 21:04:00,
2013-05-20 14:05:00,62.6,48.5,30.14,SSE,155,2.0,6.0,60,0.00,,---,0.00,VWS V14.01,2013-05-20 21:05:00,
2013-05-20 14:09:00,63.2,48.7,30.13,SW,226,1.0,2.0,59,0.00,,---,0.00,VWS V14.01,2013-05-20 21:09:00,
2013-05-20 14:10:00,63.6,48.6,30.13,SE,127,1.0,2.0,58,0.00,,---,0.00,VWS V14.01,2013-05-20 21:10:00,
2013-05-20 14:14:00,64.2,48.7,30.13,East,86,1.0,4.0,57,0.00,,---,0.00,VWS V14.01,2013-05-20 21:14:00,
2013-05-20 14:15:00,64.5,48.0,30.13,West,269,3.0,4.0,55,0.00,,---,0.00,VWS V14.01,2013-05-20 21:15:00,
2013-05-20 14:19:00,63.9,48.4,30.13,WNW,290,2.0,4.0,57,0.00,,---,0.00,VWS V14.01,2013-05-20 21:19:00,
2013-05-20 14:20:00,63.8,49.7,30.13,SW,219,1.0,4.0,60,0.00,,---,0.00,VWS V14.01,2013-05-20 21:20:00,
2013-05-20 14:24:00,64.5,47.5,30.13,SSE,150,2.0,3.0,54,0.00,,---,0.00,VWS V14.01,2013-05-20 21:24:00,
2013-05-20 14:25:00,64.6,48.6,30.13,WNW,283,2.0,3.0,56,0.00,,---,0.00,VWS V14.01,2013-05-20 21:25:00,
2013-05-20 14:29:00,65.0,48.9,30.12,West,271,3.0,3.0,56,0.00,,---,0.00,VWS V14.01,2013-05-20 21:29:00,
2013-05-20 14:30:00,64.7,47.7,30.12,West,278,0.0,3.0,54,0.00,,---,0.00,VWS V14.01,2013-05-20 21:30:00,
2013-05-20 14:34:00,64.5,47.0,30.12,ESE,103,2.0,5.0,53,0.00,,---,0.00,VWS V14.01,2013-05-20 21:34:00,
2013-05-20 14:35:00,64.4,46.9,30.12,WNW,289,2.0,5.0,53,0.00,,---,0.00,VWS V14.01,2013-05-20 21:35:00,
2013-05-20 14:39:00,64.4,48.4,30.11,West,266,1.0,3.0,56,0.00,,---,0.00,VWS V14.01,2013-05-20 21:39:00,
2013-05-20 14:40:00,64.8,46.8,30.11,SSE,160,0.0,4.0,52,0.00,,---,0.00,VWS V14.01,2013-05-20 21:40:00,
2013-05-20 14:44:00,64.9,46.9,30.11,East,79,4.0,4.0,52,0.00,,---,0.00,VWS V14.01,2013-05-20 21:44:00,
2013-05-20 14:45:00,65.0,47.5,30.11,ESE,113,1.0,4.0,53,0.00,,---,0.00,VWS V14.01,2013-05-20 21:45:00,
2013-05-20 14:49:00,65.3,46.7,30.11,WSW,256,2.0,3.0,51,0.00,,---,0.00,VWS V14.01,2013-05-20 21:49:00,
2013-05-20 14:50:00,65.4,47.8,30.11,East,98,4.0,4.0,53,0.00,,---,0.00,VWS V14.01,2013-05-20 21:50:00,
2013-05-20 14:54:00,65.7,46.6,30.10,ESE,107,2.0,4.0,50,0.00,,---,0.00,VWS V14.01,2013-05-20 21:54:00,
2013-05-20 14:55:00,65.7,46.0,30.10,SW,236,1.0,4.0,49,0.00,,---,0.00,VWS V14.01,2013-05-20 21:55:00,
2013-05-20 14:59:00,65.6,46.0,30.10,West,279,2.0,8.0,49,0.00,,---,0.00,VWS V14.01,2013-05-20 21:59:00,
2013-05-20 15:00:00,65.4,46.3,30.10,SSE,160,2.0,8.0,50,0.00,,---,0.00,VWS V14.01,2013-05-20 22:00:00,
2013-05-20 15:04:00,65.8,45.6,30.10,WNW,297,2.0,4.0,48,0.00,,---,0.00,VWS V14.01,2013-05-20 22:04:00,
2013-05-20 15:05:00,65.5,45.3,30.10,West,278,2.0,7.0,48,0.00,,---,0.00,VWS V14.01,2013-05-20 22:05:00,
2013-05-20 15:09:00,64.9,45.3,30.09,WNW,294,5.0,6.0,49,0.00,,---,0.00,VWS V14.01,2013-05-20 22:09:00,
2013-05-20 15:10:00,64.7,45.7,30.09,NW,304,1.0,6.0,50,0.00,,---,0.00,VWS V14.01,2013-05-20 22:10:00,
2013-05-20 15:14:00,64.8,45.7,30.09,WNW,293,5.0,7.0,50,0.00,,---,0.00,VWS V14.01,2013-05-20 22:14:00,
2013-05-20 15:15:00,64.6,45.0,30.09,WSW,253,1.0,7.0,49,0.00,,---,0.00,VWS V14.01,2013-05-20 22:15:00,
2013-05-20 15:19:00,65.2,45.6,30.09,SSW,207,1.0,6.0,49,0.00,,---,0.00,VWS V14.01,2013-05-20 22:19:00,
2013-05-20 15:20:00,65.6,45.4,30.09,East,91,1.0,6.0,48,0.00,,---,0.00,VWS V14.01,2013-05-20 22:20:00,
2013-05-20 15:24:00,65.8,45.0,30.09,NW,304,5.0,8.0,47,0.00,,---,0.00,VWS V14.01,2013-05-20 22:24:00,
2013-05-20 15:25:00,65.5,44.8,30.09,SSW,202,1.0,8.0,47,0.00,,---,0.00,VWS V14.01,2013-05-20 22:25:00,
2013-05-20 15:29:00,66.0,45.8,30.08,ESE,119,1.0,2.0,48,0.00,,---,0.00,VWS V14.01,2013-05-20 22:29:00,
2013-05-20 15:30:00,66.2,45.4,30.08,West,261,1.0,4.0,47,0.00,,---,0.00,VWS V14.01,2013-05-20 22:30:00,
2013-05-20 15:34:00,66.4,45.0,30.08,SSE,164,0.0,4.0,46,0.00,,---,0.00,VWS V14.01,2013-05-20 22:34:00,
2013-05-20 15:35:00,66.6,46.3,30.08,SE,145,1.0,4.0,48,0.00,,---,0.00,VWS V14.01,2013-05-20 22:35:00,
2013-05-20 15:39:00,67.2,46.9,30.08,WNW,292,3.0,3.0,48,0.00,,---,0.00,VWS V14.01,2013-05-20 22:39:00,
2013-05-20 15:40:00,67.3,46.4,30.08,NW,307,8.0,8.0,47,0.00,,---,0.00,VWS V14.01,2013-05-20 22:40:00,
2013-05-20 15:44:00,66.2,44.2,30.07,WNW,292,3.0,8.0,45,0.00,,---,0.00,VWS V14.01,2013-05-20 22:44:00,
2013-05-20 15:45:00,65.8,45.6,30.07,NW,308,3.0,8.0,48,0.00,,---,0.00,VWS V14.01,2013-05-20 22:45:00,
2013-05-20 15:49:00,66.1,46.4,30.07,West,269,3.0,4.0,49,0.00,,---,0.00,VWS V14.01,2013-05-20 22:49:00,
2013-05-20 15:50:00,66.4,47.2,30.07,SSE,150,1.0,4.0,50,0.00,,---,0.00,VWS V14.01,2013-05-20 22:50:00,
2013-05-20 15:54:00,66.6,46.3,30.07,WNW,300,3.0,3.0,48,0.00,,---,0.00,VWS V14.01,2013-05-20 22:54:00,
2013-05-20 15:55:00,66.4,45.0,30.07,West,279,4.0,5.0,46,0.00,,---,0.00,VWS V14.01,2013-05-20 22:55:00,
2013-05-20 15:59:00,65.5,45.3,30.06,WNW,284,4.0,7.0,48,0.00,,---,0.00,VWS V14.01,2013-05-20 22:59:00,
2013-05-20 16:00:00,65.5,46.4,30.07,NNW,328,2.0,7.0,50,0.00,,---,0.00,VWS V14.01,2013-05-20 23:00:00,
2013-05-20 16:04:00,65.5,46.4,30.06,NW,305,3.0,8.0,50,0.00,,---,0.00,VWS V14.01,2013-05-20 23:04:00,
2013-05-20 16:05:00,65.4,46.3,30.06,West,266,3.0,8.0,50,0.00,,---,0.00,VWS V14.01,2013-05-20 23:05:00,
2013-05-20 16:09:00,65.7,46.6,30.06,WSW,243,7.0,7.0,50,0.00,,---,0.00,VWS V14.01,2013-05-20 23:09:00,
2013-05-20 16:10:00,65.8,47.2,30.06,SW,229,4.0,7.0,51,0.00,,---,0.00,VWS V14.01,2013-05-20 23:10:00,
2013-05-20 16:14:00,66.2,47.0,30.06,WSW,242,1.0,4.0,50,0.00,,---,0.00,VWS V14.01,2013-05-20 23:14:00,
2013-05-20 16:15:00,66.6,47.9,30.06,SW,235,1.0,4.0,51,0.00,,---,0.00,VWS V14.01,2013-05-20 23:15:00,
2013-05-20 16:19:00,66.5,46.8,30.05,NW,304,2.0,5.0,49,0.00,,---,0.00,VWS V14.01,2013-05-20 23:19:00,
2013-05-20 16:20:00,66.0,46.8,30.05,NNW,335,1.0,5.0,50,0.00,,---,0.00,VWS V14.01,2013-05-20 23:20:00,
2013-05-20 16:24:00,66.1,47.5,30.05,WNW,291,1.0,2.0,51,0.00,,---,0.00,VWS V14.01,2013-05-20 23:24:00,
2013-05-20 16:25:00,66.3,47.1,30.05,SSE,153,0.0,3.0,50,0.00,,---,0.00,VWS V14.01,2013-05-20 23:25:00,
2013-05-20 16:29:00,66.7,47.5,30.05,WNW,293,5.0,6.0,50,0.00,,---,0.00,VWS V14.01,2013-05-20 23:29:00,
2013-05-20 16:30:00,66.6,48.4,30.05,NW,309,3.0,6.0,52,0.00,,---,0.00,VWS V14.01,2013-05-20 23:30:00,
2013-05-20 16:34:00,67.1,48.4,30.04,NNW,341,0.0,5.0,51,0.00,,---,0.00,VWS V14.01,2013-05-20 23:34:00,
2013-05-20 16:35:00,67.4,48.7,30.04,WSW,254,1.0,5.0,51,0.00,,---,0.00,VWS V14.01,2013-05-20 23:35:00,
2013-05-20 16:39:00,67.7,50.0,30.04,SSW,212,1.0,5.0,53,0.00,,---,0.00,VWS V14.01,2013-05-20 23:39:00,
2013-05-20 16:40:00,67.8,48.5,30.04,East,90,3.0,7.0,50,0.00,,---,0.00,VWS V14.01,2013-05-20 23:40:00,
2013-05-20 16:44:00,67.3,49.6,30.04,West,260,2.0,3.0,53,0.00,,---,0.00,VWS V14.01,2013-05-20 23:44:00,
2013-05-20 16:45:00,67.5,48.8,30.04,SSE,156,1.0,3.0,51,0.00,,---,0.00,VWS V14.01,2013-05-20 23:45:00,
2013-05-20 16:49:00,67.6,49.9,30.03,SE,140,1.0,1.0,53,0.00,,---,0.00,VWS V14.01,2013-05-20 23:49:00,
2013-05-20 16:50:00,67.9,49.1,30.03,WNW,293,6.0,6.0,51,0.00,,---,0.00,VWS V14.01,2013-05-20 23:50:00,
2013-05-20 16:54:00,67.4,49.7,30.03,SW,235,2.0,8.0,53,0.00,,---,0.00,VWS V14.01,2013-05-20 23:54:00,
2013-05-20 16:55:00,67.5,49.8,30.03,WSW,254,0.0,8.0,53,0.00,,---,0.00,VWS V14.01,2013-05-20 23:55:00,
2013-05-20 16:59:00,67.4,49.2,30.03,WSW,240,1.0,4.0,52,0.00,,---,0.00,VWS V14.01,2013-05-20 23:59:00,
2013-05-20 17:00:00,67.7,49.5,30.03,SSE,159,4.0,4.0,52,0.00,,---,0.00,VWS V14.01,2013-05-21 00:00:00,
2013-05-20 17:04:00,68.1,50.3,30.02,SE,144,1.0,3.0,53,0.00,,---,0.00,VWS V14.01,2013-05-21 00:04:00,
2013-05-20 17:05:00,68.5,49.2,30.02,SSE,150,1.0,3.0,50,0.00,,---,0.00,VWS V14.01,2013-05-21 00:05:00,
2013-05-20 17:09:00,68.6,48.7,30.02,SE,137,1.0,4.0,49,0.00,,---,0.00,VWS V14.01,2013-05-21 00:09:00,
2013-05-20 17:10:00,68.5,48.6,30.02,East,94,3.0,4.0,49,0.00,,---,0.00,VWS V14.01,2013-05-21 00:10:00,
2013-05-20 17:14:00,68.2,48.9,30.02,SW,236,3.0,5.0,50,0.00,,---,0.00,VWS V14.01,2013-05-21 00:14:00,
2013-05-20 17:15:00,67.9,48.1,30.02,WNW,299,4.0,7.0,49,0.00,,---,0.00,VWS V14.01,2013-05-21 00:15:00,
2013-05-20 17:19:00,67.3,50.1,30.02,NNW,337,4.0,10.0,54,0.00,,---,0.00,VWS V14.01,2013-05-21 00:19:00,
2013-05-20 17:20:00,66.9,50.7,30.02,NW,310,5.0,11.0,56,0.00,,---,0.00,VWS V14.01,2013-05-21 00:20:00,
2013-05-20 17:24:00,65.4,50.2,30.02,WNW,290,7.0,13.0,58,0.00,,---,0.00,VWS V14.01,2013-05-21 00:24:00,
2013-05-20 17:25:00,64.5,49.9,30.02,NNW,342,4.0,13.0,59,0.00,,---,0.00,VWS V14.01,2013-05-21 00:25:00,
2013-05-20 17:29:00,63.8,49.7,30.02,NNW,328,8.0,12.0,60,0.00,,---,0.00,VWS V14.01,2013-05-21 00:29:00,
2013-05-20 17:30:00,63.2,49.1,30.02,NW,325,7.0,13.0,60,0.00,,---,0.00,VWS V14.01,2013-05-21 00:30:00,
2013-05-20 17:34:00,62.7,49.9,30.02,NNW,342,8.0,10.0,63,0.00,,---,0.00,VWS V14.01,2013-05-21 00:34:00,
2013-05-20 17:35:00,62.8,50.0,30.02,NNW,340,7.0,10.0,63,0.00,,---,0.00,VWS V14.01,2013-05-21 00:35:00,
2013-05-20 17:39:00,62.7,49.5,30.01,NNW,338,4.0,14.0,62,0.00,,---,0.00,VWS V14.01,2013-05-21 00:39:00,
2013-05-20 17:40:00,62.1,48.9,30.01,NW,312,5.0,15.0,62,0.00,,---,0.00,VWS V14.01,2013-05-21 00:40:00,
2013-05-20 17:44:00,61.4,48.7,30.02,WNW,297,7.0,16.0,63,0.00,,---,0.00,VWS V14.01,2013-05-21 00:44:00,
2013-05-20 17:45:00,60.9,48.7,30.01,NNW,339,11.0,16.0,64,0.00,,---,0.00,VWS V14.01,2013-05-21 00:45:00,
2013-05-20 17:49:00,60.4,48.6,30.01,WNW,294,4.0,14.0,65,0.00,,---,0.00,VWS V14.01,2013-05-21 00:49:00,
2013-05-20 17:50:00,60.3,48.9,30.01,NNW,332,4.0,14.0,66,0.00,,---,0.00,VWS V14.01,2013-05-21 00:50:00,
2013-05-20 17:54:00,60.4,49.4,30.01,ENE,70,5.0,12.0,67,0.00,,---,0.00,VWS V14.01,2013-05-21 00:54:00,
2013-05-20 17:55:00,60.4,49.0,30.00,NW,319,13.0,13.0,66,0.00,,---,0.00,VWS V14.01,2013-05-21 00:55:00,
2013-05-20 17:59:00,60.2,48.8,30.01,NNW,338,7.0,13.0,66,0.00,,---,0.00,VWS V14.01,2013-05-21 00:59:00,
2013-05-20 18:00:00,60.1,48.7,30.01,NW,323,10.0,13.0,66,0.00,,---,0.00,VWS V14.01,2013-05-21 01:00:00,
2013-05-20 18:04:00,59.8,48.8,30.00,NW,306,8.0,12.0,67,0.00,,---,0.00,VWS V14.01,2013-05-21 01:04:00,
2013-05-20 18:05:00,59.5,48.5,30.01,NW,314,6.0,13.0,67,0.00,,---,0.00,VWS V14.01,2013-05-21 01:05:00,
2013-05-20 18:09:00,59.1,48.6,30.00,WNW,293,2.0,14.0,68,0.00,,---,0.00,VWS V14.01,2013-05-21 01:09:00,
2013-05-20 18:10:00,59.1,48.6,30.00,West,271,6.0,14.0,68,0.00,,---,0.00,VWS V14.01,2013-05-21 01:10:00,
2013-05-20 18:14:00,59.4,48.8,30.00,NW,307,4.0,12.0,68,0.00,,---,0.00,VWS V14.01,2013-05-21 01:14:00,
2013-05-20 18:15:00,59.4,48.8,30.00,NW,326,6.0,12.0,68,0.00,,---,0.00,VWS V14.01,2013-05-21 01:15:00,
2013-05-20 18:19:00,59.0,48.9,30.00,NE,45,3.0,11.0,69,0.00,,---,0.00,VWS V14.01,2013-05-21 01:19:00,
2013-05-20 18:20:00,59.0,48.9,30.00,NW,312,5.0,13.0,69,0.00,,---,0.00,VWS V14.01,2013-05-21 01:20:00,
2013-05-20 18:24:00,58.4,48.3,30.00,North,8,5.0,13.0,69,0.00,,---,0.00,VWS V14.01,2013-05-21 01:24:00,
2013-05-20 18:25:00,58.4,49.0,29.99,NNW,348,6.0,13.0,71,0.00,,---,0.00,VWS V14.01,2013-05-21 01:25:00,
2013-05-20 18:29:00,58.6,48.9,29.99,NW,314,4.0,13.0,70,0.00,,---,0.00,VWS V14.01,2013-05-21 01:29:00,
2013-05-20 18:30:00,58.7,49.0,29.99,NNE,32,6.0,13.0,70,0.00,,---,0.00,VWS V14.01,2013-05-21 01:30:00,
2013-05-20 18:34:00,58.6,48.9,29.99,SE,145,2.0,8.0,70,0.00,,---,0.00,VWS V14.01,2013-05-21 01:34:00,
2013-05-20 18:35:00,58.7,48.6,29.99,NNW,340,4.0,9.0,69,0.00,,---,0.00,VWS V14.01,2013-05-21 01:35:00,
2013-05-20 18:39:00,58.6,48.9,29.99,WNW,302,4.0,8.0,70,0.00,,---,0.00,VWS V14.01,2013-05-21 01:39:00,
2013-05-20 18:40:00,58.6,48.9,29.99,WNW,289,2.0,8.0,70,0.00,,---,0.00,VWS V14.01,2013-05-21 01:40:00,
2013-05-20 18:44:00,58.7,49.0,29.99,WSW,238,4.0,13.0,70,0.00,,---,0.00,VWS V14.01,2013-05-21 01:44:00,
2013-05-20 18:45:00,58.6,48.9,29.98,NW,313,7.0,13.0,70,0.00,,---,0.00,VWS V14.01,2013-05-21 01:45:00,
2013-05-20 18:49:00,58.6,48.9,29.98,SW,222,4.0,8.0,70,0.00,,---,0.00,VWS V14.01,2013-05-21 01:49:00,
2013-05-20 18:50:00,58.7,49.0,29.98,NW,309,4.0,10.0,70,0.00,,---,0.00,VWS V14.01,2013-05-21 01:50:00,
2013-05-20 18:54:00,58.5,48.8,29.99,NNW,327,6.0,14.0,70,0.00,,---,0.00,VWS V14.01,2013-05-21 01:54:00,
2013-05-20 18:55:00,58.4,48.7,29.99,NW,309,3.0,14.0,70,0.00,,---,0.00,VWS V14.01,2013-05-21 01:55:00,
2013-05-20 18:59:00,58.5,49.1,29.99,NNW,348,3.0,8.0,71,0.00,,---,0.00,VWS V14.01,2013-05-21 01:59:00,
2013-05-20 19:00:00,58.3,48.6,29.98,NNW,329,3.0,10.0,70,0.00,,---,0.00,VWS V14.01,2013-05-21 02:00:00,
2013-05-20 19:04:00,58.2,48.8,29.98,NW,321,2.0,12.0,71,0.00,,---,0.00,VWS V14.01,2013-05-21 02:04:00,
2013-05-20 19:05:00,58.3,49.0,29.98,NW,315,1.0,12.0,71,0.00,,---,0.00,VWS V14.01,2013-05-21 02:05:00,
2013-05-20 19:09:00,58.2,48.5,29.98,North,356,0.0,13.0,70,0.00,,---,0.00,VWS V14.01,2013-05-21 02:09:00,
2013-05-20 19:10:00,57.9,48.2,29.98,NW,311,7.0,13.0,70,0.00,,---,0.00,VWS V14.01,2013-05-21 02:10:00,
2013-05-20 19:14:00,57.5,48.6,29.98,WNW,291,5.0,8.0,72,0.00,,---,0.00,VWS V14.01,2013-05-21 02:14:00,
2013-05-20 19:15:00,57.4,48.5,29.98,WNW,297,3.0,8.0,72,0.00,,---,0.00,VWS V14.01,2013-05-21 02:15:00,
2013-05-20 19:19:00,57.2,48.6,29.98,NNW,330,2.0,7.0,73,0.00,,---,0.00,VWS V14.01,2013-05-21 02:19:00,
2013-05-20 19:20:00,57.1,48.5,29.98,East,80,6.0,7.0,73,0.00,,---,0.00,VWS V14.01,2013-05-21 02:20:00,
2013-05-20 19:24:00,56.8,48.6,29.98,NW,324,9.0,13.0,74,0.00,,---,0.00,VWS V14.01,2013-05-21 02:24:00,
2013-05-20 19:25:00,56.6,48.4,29.98,NW,308,3.0,13.0,74,0.00,,---,0.00,VWS V14.01,2013-05-21 02:25:00,
2013-05-20 19:29:00,56.6,48.8,29.98,NNW,330,0.0,5.0,75,0.00,,---,0.00,VWS V14.01,2013-05-21 02:29:00,
2013-05-20 19:30:00,56.6,48.8,29.98,West,268,1.0,6.0,75,0.00,,---,0.00,VWS V14.01,2013-05-21 02:30:00,
2013-05-20 19:34:00,56.5,48.7,29.98,North,4,4.0,8.0,75,0.00,,---,0.00,VWS V14.01,2013-05-21 02:34:00,
2013-05-20 19:35:00,56.5,48.3,29.98,WNW,291,5.0,8.0,74,0.00,,---,0.00,VWS V14.01,2013-05-21 02:35:00,
2013-05-20 19:39:00,56.3,48.5,29.97,WNW,298,3.0,8.0,75,0.00,,---,0.00,VWS V14.01,2013-05-21 02:39:00,
2013-05-20 19:40:00,56.2,48.8,29.97,NW,324,2.0,8.0,76,0.00,,---,0.00,VWS V14.01,2013-05-21 02:40:00,
2013-05-20 19:44:00,56.0,48.5,29.97,ESE,106,1.0,7.0,76,0.00,,---,0.00,VWS V14.01,2013-05-21 02:44:00,
2013-05-20 19:45:00,55.9,48.5,29.97,WNW,293,1.0,7.0,76,0.00,,---,0.00,VWS V14.01,2013-05-21 02:45:00,
2013-05-20 19:49:00,55.8,48.4,29.97,WNW,293,6.0,8.0,76,0.00,,---,0.00,VWS V14.01,2013-05-21 02:49:00,
2013-05-20 19:50:00,55.7,47.9,29.97,NNW,340,4.0,8.0,75,0.00,,---,0.00,VWS V14.01,2013-05-21 02:50:00,
2013-05-20 19:54:00,55.6,47.8,29.97,NNW,329,2.0,8.0,75,0.00,,---,0.00,VWS V14.01,2013-05-21 02:54:00,
2013-05-20 19:55:00,55.6,47.8,29.97,NNW,338,3.0,8.0,75,0.00,,---,0.00,VWS V14.01,2013-05-21 02:55:00,
2013-05-20 19:59:00,55.5,47.7,29.97,NW,325,2.0,9.0,75,0.00,,---,0.00,VWS V14.01,2013-05-21 02:59:00,
2013-05-20 20:00:00,55.4,47.6,29.97,ENE,75,5.0,10.0,75,0.00,,---,0.00,VWS V14.01,2013-05-21 03:00:00,
2013-05-20 20:04:00,55.3,47.5,29.97,North,7,2.0,8.0,75,0.00,,---,0.00,VWS V14.01,2013-05-21 03:04:00,
2013-05-20 20:05:00,55.3,47.5,29.97,NW,316,2.0,8.0,75,0.00,,---,0.00,VWS V14.01,2013-05-21 03:05:00,
2013-05-20 20:09:00,55.2,47.4,29.97,NNW,339,1.0,5.0,75,0.00,,---,0.00,VWS V14.01,2013-05-21 03:09:00,
2013-05-20 20:10:00,55.2,47.4,29.97,WNW,293,0.0,6.0,75,0.00,,---,0.00,VWS V14.01,2013-05-21 03:10:00,
2013-05-20 20:14:00,55.1,47.3,29.96,WSW,250,0.0,5.0,75,0.00,,---,0.00,VWS V14.01,2013-05-21 03:14:00,
2013-05-20 20:15:00,55.1,47.0,29.97,ESE,121,1.0,5.0,74,0.00,,---,0.00,VWS V14.01,2013-05-21 03:15:00,
2013-05-20 20:19:00,55.0,46.9,29.97,NW,326,3.0,6.0,74,0.00,,---,0.00,VWS V14.01,2013-05-21 03:19:00,
2013-05-20 20:20:00,55.0,46.9,29.96,North,357,3.0,6.0,74,0.00,,---,0.00,VWS V14.01,2013-05-21 03:20:00,
2013-05-20 20:24:00,54.9,46.8,29.97,NW,323,0.0,4.0,74,0.00,,---,0.00,VWS V14.01,2013-05-21 03:24:00,
2013-05-20 20:25:00,54.9,46.8,29.97,WNW,294,2.0,4.0,74,0.00,,---,0.00,VWS V14.01,2013-05-21 03:25:00,
2013-05-20 20:29:00,54.9,46.8,29.96,North,356,1.0,13.0,74,0.00,,---,0.00,VWS V14.01,2013-05-21 03:29:00,
2013-05-20 20:30:00,54.8,46.7,29.96,ENE,69,1.0,13.0,74,0.00,,---,0.00,VWS V14.01,2013-05-21 03:30:00,
2013-05-20 20:34:00,54.9,46.8,29.96,South,175,2.0,6.0,74,0.00,,---,0.00,VWS V14.01,2013-05-21 03:34:00,
2013-05-20 20:35:00,54.9,46.8,29.96,East,86,1.0,6.0,74,0.00,,---,0.00,VWS V14.01,2013-05-21 03:35:00,
2013-05-20 20:39:00,54.8,46.7,29.96,NW,307,0.0,6.0,74,0.00,,---,0.00,VWS V14.01,2013-05-21 03:39:00,
2013-05-20 20:40:00,54.8,46.7,29.96,NNW,330,0.0,6.0,74,0.00,,---,0.00,VWS V14.01,2013-05-21 03:40:00,
2013-05-20 20:44:00,54.7,46.6,29.96,West,270,2.0,4.0,74,0.00,,---,0.00,VWS V14.01,2013-05-21 03:44:00,
2013-05-20 20:45:00,54.7,46.6,29.96,ESE,115,0.0,4.0,74,0.00,,---,0.00,VWS V14.01,2013-05-21 03:45:00,
2013-05-20 20:49:00,54.6,46.5,29.96,NE,55,2.0,5.0,74,0.00,,---,0.00,VWS V14.01,2013-05-21 03:49:00,
2013-05-20 20:50:00,54.6,46.5,29.96,NNW,330,2.0,5.0,74,0.00,,---,0.00,VWS V14.01,2013-05-21 03:50:00,
2013-05-20 20:54:00,54.5,46.8,29.95,NNW,333,4.0,5.0,75,0.00,,---,0.00,VWS V14.01,2013-05-21 03:54:00,
2013-05-20 20:55:00,54.5,46.8,29.96,NNW,347,1.0,7.0,75,0.00,,---,0.00,VWS V14.01,2013-05-21 03:55:00,
2013-05-20 20:59:00,54.4,46.7,29.95,North,349,0.0,6.0,75,0.00,,---,0.00,VWS V14.01,2013-05-21 03:59:00,
2013-05-20 21:00:00,54.3,46.9,29.95,NNW,340,1.0,6.0,76,0.00,,---,0.00,VWS V14.01,2013-05-21 04:00:00,
2013-05-20 21:01:00,54.3,46.9,29.95,ENE,75,1.0,6.0,76,0.00,,---,0.00,VWS V14.01,2013-05-21 04:01:00,
2013-05-20 21:05:00,54.3,46.9,29.95,East,86,0.0,6.0,76,0.00,,---,0.00,VWS V14.01,2013-05-21 04:05:00,
2013-05-20 21:06:00,54.2,46.8,29.95,East,86,0.0,0.0,76,0.00,,---,0.00,VWS V14.01,2013-05-21 04:06:00,
2013-05-20 21:10:00,54.1,46.7,29.95,NNE,21,1.0,3.0,76,0.00,,---,0.00,VWS V14.01,2013-05-21 04:10:00,
2013-05-20 21:11:00,54.1,46.7,29.95,ENE,57,1.0,2.0,76,0.00,,---,0.00,VWS V14.01,2013-05-21 04:11:00,
2013-05-20 21:15:00,54.0,46.6,29.95,North,352,1.0,5.0,76,0.00,,---,0.00,VWS V14.01,2013-05-21 04:15:00,
2013-05-20 21:16:00,54.1,46.7,29.95,ENE,65,2.0,2.0,76,0.00,,---,0.00,VWS V14.01,2013-05-21 04:16:00,
2013-05-20 21:20:00,54.0,47.0,29.95,North,353,0.0,2.0,77,0.00,,---,0.00,VWS V14.01,2013-05-21 04:20:00,
2013-05-20 21:21:00,54.0,47.0,29.95,North,353,0.0,0.0,77,0.00,,---,0.00,VWS V14.01,2013-05-21 04:21:00,
2013-05-20 21:25:00,53.9,46.9,29.95,NE,46,0.0,3.0,77,0.00,,---,0.00,VWS V14.01,2013-05-21 04:25:00,
2013-05-20 21:26:00,53.9,46.9,29.95,NE,49,2.0,2.0,77,0.00,,---,0.00,VWS V14.01,2013-05-21 04:26:00,
2013-05-20 21:30:00,54.0,46.6,29.95,NNE,28,3.0,5.0,76,0.00,,---,0.00,VWS V14.01,2013-05-21 04:30:00,
2013-05-20 21:31:00,54.0,46.6,29.95,North,11,2.0,3.0,76,0.00,,---,0.00,VWS V14.01,2013-05-21 04:31:00,
2013-05-20 21:35:00,54.0,46.6,29.94,NE,46,0.0,4.0,76,0.00,,---,0.00,VWS V14.01,2013-05-21 04:35:00,
2013-05-20 21:36:00,54.0,46.6,29.94,NW,317,1.0,1.0,76,0.00,,---,0.00,VWS V14.01,2013-05-21 04:36:00,
2013-05-20 21:40:00,54.0,46.6,29.94,NNW,331,0.0,5.0,76,0.00,,---,0.00,VWS V14.01,2013-05-21 04:40:00,
2013-05-20 21:41:00,54.0,46.6,29.95,NW,309,2.0,2.0,76,0.00,,---,0.00,VWS V14.01,2013-05-21 04:41:00,
2013-05-20 21:45:00,53.8,46.4,29.95,NNW,338,0.0,3.0,76,0.00,,---,0.00,VWS V14.01,2013-05-21 04:45:00,
2013-05-20 21:46:00,53.8,46.4,29.95,NNW,338,0.0,0.0,76,0.00,,---,0.00,VWS V14.01,2013-05-21 04:46:00,
2013-05-20 21:50:00,53.7,46.7,29.94,NNW,344,1.0,1.0,77,0.00,,---,0.00,VWS V14.01,2013-05-21 04:50:00,
2013-05-20 21:51:00,53.7,46.7,29.95,North,10,1.0,1.0,77,0.00,,---,0.00,VWS V14.01,2013-05-21 04:51:00,
2013-05-20 21:55:00,53.7,46.7,29.94,NNW,348,1.0,3.0,77,0.00,,---,0.00,VWS V14.01,2013-05-21 04:55:00,
2013-05-20 21:56:00,53.7,46.7,29.94,NNW,347,1.0,1.0,77,0.00,,---,0.00,VWS V14.01,2013-05-21 04:56:00,
2013-05-20 22:00:00,53.6,46.9,29.94,North,5,0.0,3.0,78,0.00,,---,0.00,VWS V14.01,2013-05-21 05:00:00,
2013-05-20 22:01:00,53.6,46.9,29.94,NE,54,1.0,1.0,78,0.00,,---,0.00,VWS V14.01,2013-05-21 05:01:00,
2013-05-20 22:05:00,53.5,46.8,29.94,North,352,0.0,3.0,78,0.00,,---,0.00,VWS V14.01,2013-05-21 05:05:00,
2013-05-20 22:06:00,53.5,46.8,29.93,East,91,2.0,2.0,78,0.00,,---,0.00,VWS V14.01,2013-05-21 05:06:00,
2013-05-20 22:10:00,53.4,46.7,29.93,ESE,103,1.0,3.0,78,0.00,,---,0.00,VWS V14.01,2013-05-21 05:10:00,
2013-05-20 22:11:00,53.4,46.7,29.93,NE,42,0.0,2.0,78,0.00,,---,0.00,VWS V14.01,2013-05-21 05:11:00,
2013-05-20 22:15:00,53.4,46.7,29.93,NNE,25,1.0,3.0,78,0.00,,---,0.00,VWS V14.01,2013-05-21 05:15:00,
2013-05-20 22:16:00,53.4,46.7,29.93,North,8,0.0,1.0,78,0.00,,---,0.00,VWS V14.01,2013-05-21 05:16:00,
2013-05-20 22:20:00,53.4,46.7,29.93,ESE,108,1.0,4.0,78,0.00,,---,0.00,VWS V14.01,2013-05-21 05:20:00,
2013-05-20 22:21:00,53.4,46.7,29.93,ESE,108,0.0,1.0,78,0.00,,---,0.00,VWS V14.01,2013-05-21 05:21:00,
2013-05-20 22:25:00,53.4,46.7,29.93,ENE,58,2.0,5.0,78,0.00,,---,0.00,VWS V14.01,2013-05-21 05:25:00,
2013-05-20 22:26:00,53.4,46.7,29.93,NE,48,1.0,2.0,78,0.00,,---,0.00,VWS V14.01,2013-05-21 05:26:00,
2013-05-20 22:30:00,53.4,46.7,29.92,ENE,65,0.0,3.0,78,0.00,,---,0.00,VWS V14.01,2013-05-21 05:30:00,
2013-05-20 22:31:00,53.4,46.7,29.92,NNE,25,1.0,1.0,78,0.00,,---,0.00,VWS V14.01,2013-05-21 05:31:00,
2013-05-20 22:35:00,53.3,46.6,29.92,ENE,58,2.0,4.0,78,0.00,,---,0.00,VWS V14.01,2013-05-21 05:35:00,
2013-05-20 22:36:00,53.3,46.3,29.92,ENE,68,2.0,2.0,77,0.00,,---,0.00,VWS V14.01,2013-05-21 05:36:00,
2013-05-20 22:40:00,53.3,46.3,29.92,NNW,334,0.0,3.0,77,0.00,,---,0.00,VWS V14.01,2013-05-21 05:40:00,
2013-05-20 22:41:00,53.3,46.6,29.92,NNW,334,0.0,0.0,78,0.00,,---,0.00,VWS V14.01,2013-05-21 05:41:00,
2013-05-20 22:45:00,53.2,46.5,29.92,East,93,0.0,3.0,78,0.00,,---,0.00,VWS V14.01,2013-05-21 05:45:00,
2013-05-20 22:46:00,53.2,46.5,29.91,East,93,0.0,0.0,78,0.00,,---,0.00,VWS V14.01,2013-05-21 05:46:00,
2013-05-20 22:50:00,53.2,46.5,29.92,East,86,2.0,3.0,78,0.00,,---,0.00,VWS V14.01,2013-05-21 05:50:00,
2013-05-20 22:51:00,53.2,46.5,29.92,NE,51,2.0,2.0,78,0.00,,---,0.00,VWS V14.01,2013-05-21 05:51:00,
2013-05-20 22:55:00,53.2,46.2,29.91,NNE,31,0.0,6.0,77,0.00,,---,0.00,VWS V14.01,2013-05-21 05:55:00,
2013-05-20 22:56:00,53.1,46.1,29.91,NNE,30,0.0,0.0,77,0.00,,---,0.00,VWS V14.01,2013-05-21 05:56:00,
2013-05-20 23:00:00,53.1,46.4,29.91,NE,53,0.0,3.0,78,0.00,,---,0.00,VWS V14.01,2013-05-21 06:00:00,
2013-05-20 23:01:00,53.1,46.4,29.91,NE,53,1.0,1.0,78,0.00,,---,0.00,VWS V14.01,2013-05-21 06:01:00,
2013-05-20 23:05:00,53.2,46.5,29.92,NNW,329,1.0,2.0,78,0.00,,---,0.00,VWS V14.01,2013-05-21 06:05:00,
2013-05-20 23:06:00,53.2,46.5,29.91,NNW,344,3.0,4.0,78,0.00,,---,0.00,VWS V14.01,2013-05-21 06:06:00,
2013-05-20 23:10:00,53.2,46.2,29.92,NNE,18,0.0,4.0,77,0.00,,---,0.00,VWS V14.01,2013-05-21 06:10:00,
2013-05-20 23:11:00,53.2,46.2,29.92,NNE,18,1.0,1.0,77,0.00,,---,0.00,VWS V14.01,2013-05-21 06:11:00,
2013-05-20 23:15:00,53.2,46.5,29.92,NW,307,3.0,3.0,78,0.00,,---,0.00,VWS V14.01,2013-05-21 06:15:00,
2013-05-20 23:16:00,53.2,46.5,29.92,NW,304,2.0,3.0,78,0.00,,---,0.00,VWS V14.01,2013-05-21 06:16:00,
2013-05-20 23:20:00,53.1,46.4,29.91,NW,319,3.0,3.0,78,0.00,,---,0.00,VWS V14.01,2013-05-21 06:20:00,
2013-05-20 23:21:00,53.1,46.4,29.91,NW,309,3.0,3.0,78,0.00,,---,0.00,VWS V14.01,2013-05-21 06:21:00,
2013-05-20 23:25:00,52.9,46.9,29.91,NNW,335,1.0,5.0,80,0.00,,---,0.00,VWS V14.01,2013-05-21 06:25:00,
2013-05-20 23:26:00,52.9,46.9,29.91,WNW,301,2.0,3.0,80,0.00,,---,0.00,VWS V14.01,2013-05-21 06:26:00,
2013-05-20 23:30:00,52.7,47.0,29.91,NW,316,1.0,5.0,81,0.00,,---,0.00,VWS V14.01,2013-05-21 06:30:00,
2013-05-20 23:31:00,52.7,47.0,29.91,NW,319,1.0,1.0,81,0.00,,---,0.00,VWS V14.01,2013-05-21 06:31:00,
2013-05-20 23:35:00,52.7,47.0,29.91,NNE,21,2.0,4.0,81,0.00,,---,0.00,VWS V14.01,2013-05-21 06:35:00,
2013-05-20 23:36:00,52.7,47.0,29.91,NNE,26,2.0,2.0,81,0.00,,---,0.00,VWS V14.01,2013-05-21 06:36:00,
2013-05-20 23:40:00,52.7,47.0,29.91,WNW,293,3.0,3.0,81,0.00,,---,0.00,VWS V14.01,2013-05-21 06:40:00,
2013-05-20 23:41:00,52.7,47.0,29.91,WNW,290,2.0,3.0,81,0.00,,---,0.00,VWS V14.01,2013-05-21 06:41:00,
2013-05-20 23:45:00,52.5,46.8,29.92,WNW,288,4.0,7.0,81,0.00,,---,0.00,VWS V14.01,2013-05-21 06:45:00,
2013-05-20 23:46:00,52.5,46.8,29.92,WNW,293,6.0,7.0,81,0.00,,---,0.00,VWS V14.01,2013-05-21 06:46:00,
2013-05-20 23:50:00,52.4,46.8,29.91,West,267,3.0,9.0,81,0.00,,---,0.00,VWS V14.01,2013-05-21 06:50:00,
2013-05-20 23:51:00,52.4,46.8,29.91,NW,310,5.0,5.0,81,0.00,,---,0.00,VWS V14.01,2013-05-21 06:51:00,
2013-05-20 23:55:00,52.2,46.9,29.91,WNW,295,4.0,8.0,82,0.00,,---,0.00,VWS V14.01,2013-05-21 06:55:00,
2013-05-20 23:56:00,52.2,46.9,29.91,WNW,298,5.0,5.0,82,0.00,,---,0.00,VWS V14.01,2013-05-21 06:56:00,